Meteo Giornale » Osservazioni meteo Italia » Milano-Malpensa

ore: 07:50 - Osservazioni Meteo Milano-Malpensa
Lat. 45° 37' N Lon. 8° 44' E Alt. 234 metri s.l.m.

coperto_pioggia Europe/Rome

9 °C

Pioggia

Temp. 24 Ore

8 °C

20 °C

Nord-Est

7.4 Km/h

Dew point 8 °C

Umidità 93 %

Visibilità  10 Km

Il sole sorge alle ore 06:13

Il sole tramonta alle ore 18:47

Data e Ora Cielo e Fenomeni T °C DP °C Um. % Pres. hPa Vis. km Vento km/h
Oggi h: 07:50 coperto_pioggia Pioggia 9 8 93 1019 10 NE 7.4
Oggi h: 07:20 coperto_pioggia Pioggia 9 8 93 1018 10 N/NE 7.4
Oggi h: 06:50 coperto_pioggia Pioggia 9 8 93 1018 10 NE 7.4
Oggi h: 06:20 coperto_pioggia Pioggia 8 8 100 1018 10 NE 7.4
Oggi h: 05:50 coperto_pioggia Pioggia 9 8 93 1018 10 NE 7.4
Oggi h: 05:20 coperto_pioggia Pioggia 9 8 93 1018 10 N 5.5
Oggi h: 04:50 coperto_pioggia Pioggia 9 8 93 1018 10 N 5.5
Oggi h: 04:20 coperto_pioggia Pioggia 9 8 93 1018 10 N 5.5
Oggi h: 03:50 coperto_pioggia Pioggia 9 9 100 1018 10 N 5.5
Oggi h: 03:20 coperto_pioggia Pioggia 9 9 100 1018 10 S/SO 7.4
Oggi h: 03:50 coperto_pioggia Pioggia 9 9 100 1018 10 S/SO 7.4
Oggi h: 03:20 coperto_pioggia Pioggia 10 9 93 1018 10 S/SO 16.7
Oggi h: 01:50 coperto_pioggia Pioggia Debole 10 9 93 1018 10 S/SO 7.4
Oggi h: 01:20 coperto_pioggia Pioggia Debole 11 8 81 1018 10 O/SO 7.4
Oggi h: 00:50 coperto_pioggia Pioggia Debole 11 11 100 1019 10 N 1.8
Oggi h: 00:20 coperto_pioggia Pioggia Debole 11 11 100 1019 10 S/SO 18.5
Ieri h: 23:50 coperto_pioggia Pioggia Debole Foschia 12 12 100 1018 5 O 9.3
Ieri h: 23:20 coperto_pioggia Pioggia Foschia 12 11 93 1019 5 S/SO 9.3
Ieri h: 22:50 coperto_pioggia Pioggia Foschia 12 12 100 1019 3 S/SO 24
Ieri h: 22:20 coperto_pioggia Pioggia Debole Foschia 13 13 100 1017 3 O/SO 9.3
Ieri h: 21:50 coperto_pioggia Pioggia 13 13 100 1018 7 SE 7.4
Ieri h: 21:20 coperto_pioggia Pioggia Debole 13 12 93 1017 8 N 5.5
Ieri h: 20:50 coperto_pioggia Pioggia Debole Temporale nelle Vicinanze 14 12 87 1017 10 O 9.3
Ieri h: 20:20 nuvoloso_temporali Temporale con Pioggia Debole 15 11 76 1018 6 O 9.3
Ieri h: 19:50 molto_nuvoloso Molto Nuvoloso 15 11 76 1018 7 S/SO 13
Ieri h: 19:20 molto_nuvoloso Molto Nuvoloso 16 12 77 1018 7 S/SO 13
Ieri h: 18:50 molto_nuvoloso Molto Nuvoloso 16 12 77 1017 8 S/SO 14.8
Ieri h: 18:20 poco_nuvoloso Poco Nuvoloso 17 12 72 1017 10 S/SO 16.7
Ieri h: 17:50 poco_nuvoloso Poco Nuvoloso 18 9 55 1017 10 S 11.1
Ieri h: 17:20 sereno Sereno 19 10 55 1017 10 S 11.1
Ieri h: 16:50 sereno Sereno 20 9 49 1017 10 S 9.3
Ieri h: 16:20 sereno Sereno 20 9 49 1017 10 N 5.5
Ieri h: 15:50 sereno Sereno 20 9 49 1018 10 N 5.5
Ieri h: 15:20 poco_nuvoloso Poco Nuvoloso 19 8 48 1019 10 S 7.4
Ieri h: 14:50 poco_nuvoloso Poco Nuvoloso 19 8 48 1019 10 S 7.4
Ieri h: 14:20 sereno Sereno 20 8 45 1020 10 N 5.5
Ieri h: 13:20 sereno Sereno 20 9 49 1021 10 E/SE 7.4
Ieri h: 12:50 sereno Sereno 20 9 49 1021 10 N 7.4
Ieri h: 12:20 sereno Sereno 20 9 49 1022 10 N 5.5
Ieri h: 11:50 sereno Sereno 19 9 52 1022 10 N 5.5
Ieri h: 11:20 sereno Sereno 19 9 52 1023 10 E/SE 7.4
Ieri h: 10:50 sereno Sereno 18 8 51 1023 10 E/SE 7.4
Ieri h: 10:20 sereno Sereno 17 9 59 1023 10 E/SE 7.4
Ieri h: 09:50 sereno Sereno 16 9 63 1023 10 E/SE 9.3
Ieri h: 09:20 sereno Sereno 15 9 67 1023 10 E/NE 7.4
Ieri h: 08:50 sereno Sereno 13 9 76 1023 10 N/NE 9.3